Preview of NWS' New Version of Forecast
This preview is not operational and should not be used for support decisions.

Regional Weather Roundup (RWR)

Issued by National Weather Service (NWS)

                            
000
ASUS43 KTOP 241159
RWRKS 

WEATHER ROUNDUP FOR KANSAS
NATIONAL WEATHER SERVICE GOODLAND KS
700 AM CDT MON JUN 24 2019

NOTE:  "FAIR" INDICATES FEW OR NO CLOUDS BELOW 12,000 FEET WITH NO
SIGNIFICANT WEATHER AND/OR OBSTRUCTIONS TO VISIBILITY.

KSZ001>006-013>018-027>032-041>047-241300-
NORTHWEST KANSAS
  
CITY           SKY/WX    TMP DP  RH WIND       PRES   REMARKS
GOODLAND       CLEAR     50  46  86 SW13      29.93F                  
6HR MIN TEMP:  46; 6HR MAX TEMP:  50;                                

HAYS           CLEAR     51  49  92 W8        29.93R                  
HILL CITY      CLEAR     50  47  89 SW6       29.91R                  
6HR MIN TEMP:  47; 6HR MAX TEMP:  55;                                

RUSSELL        CLEAR     52  50  93 W6        29.90R                  
6HR MIN TEMP:  51; 6HR MAX TEMP:  57;                                

$$

KSZ061>065-074>080-084>089-241300-
SOUTHWEST KANSAS
  
CITY           SKY/WX    TMP DP  RH WIND       PRES   REMARKS
DODGE CITY     CLEAR     52  49  89 W7        29.96R                  
6HR MIN TEMP:  51; 6HR MAX TEMP:  56;                                

GARDEN CITY    CLEAR     49  47  93 W8        29.97S                  
6HR MIN TEMP:  47; 6HR MAX TEMP:  53;                                

GREAT BEND     CLEAR     54  52  93 W5        29.93R                  
LIBERAL        CLEAR     53  50  89 W9        30.02R                  
$$

KSZ066>073-081>083-090>101-241300-
SOUTHEAST KANSAS
  
CITY           SKY/WX    TMP DP  RH WIND       PRES   REMARKS
CHANUTE        CLOUDY    67  62  84 NW14      29.84R                  
6HR MIN TEMP:  67; 6HR MAX TEMP:  70;                                

COFFEYVILLE    MOCLDY    68  66  93 CALM      29.82R                  
6HR MIN TEMP:  66; 6HR MAX TEMP:  69;                                

HUTCHINSON     CLEAR     57  54  89 NW5       29.90S                  
6HR MIN TEMP:  54; 6HR MAX TEMP:  64;                                

MEDICINE LODGE   N/A     56  55  97 W5        29.94R                  
NEWTON         CLEAR     57  54  89 W8        29.90R                  
PARSONS        MOCLDY    68  67  96 NW7       29.83R                  
6HR MIN TEMP:  64; 6HR MAX TEMP:  69;                                

WICHITA INTL   PTCLDY    60  54  80 NW9       29.90R                  
6HR MIN TEMP:  60; 6HR MAX TEMP:  69;                                

WICHITA JABRA  CLEAR     58  54  86 NW8       29.89R                  
6HR MIN TEMP:  57; 6HR MAX TEMP:  67;                                

WICHITA MCCONL CLEAR     60  53  79 W8        29.89R HAZE             
WINFIELD       CLEAR     61  58  90 NW8       29.90R                  
6HR MIN TEMP:  61; 6HR MAX TEMP:  69;                                

$$

KSZ007>012-019>026-033>040-048>060-102>105-241300-
NORTHEAST KANSAS
  
CITY           SKY/WX    TMP DP  RH WIND       PRES   REMARKS
CONCORDIA      CLEAR     57  53  86 MISG      29.86S                  
6HR MIN TEMP:  55; 6HR MAX TEMP:  59;                                

EMPORIA        CLEAR     58  56  93 NW8       29.85R                  
6HR MIN TEMP:  57; 6HR MAX TEMP:  67;                                

LAWRENCE       MOSUNNY   62  57  83 W12       29.81R                  
6HR MIN TEMP:  61; 6HR MAX TEMP:  67;                                

MANHATTAN      CLEAR     59  55  87 CALM      29.85R                  
6HR MIN TEMP:  56; 6HR MAX TEMP:  62;                                

OLATHE IND     PTSUNNY   61  57  87 W14       29.81R                  
6HR MIN TEMP:  61; 6HR MAX TEMP:  68;                                

OLATHE EXE     CLOUDY    61  59  93 NW10      29.80R                  
6HR MIN TEMP:  61; 6HR MAX TEMP:  67;                                

SALINA         CLEAR     57  53  86 W7        29.89R                  
6HR MIN TEMP:  54; 6HR MAX TEMP:  60;                                

TOPEKA BILLARD CLEAR     61  56  83 W7        29.82R                  
6HR MIN TEMP:  61; 6HR MAX TEMP:  67;                                

TOPEKA FORBES  CLEAR     60  55  83 W10       29.82R                  
6HR MIN TEMP:  59; 6HR MAX TEMP:  67;                                

$$